Weather History for Milwaukee, WI

Change the Weather History Date:

Saturday, September 15, 2012

  Actual Average Record
Temperature  
Mean Temperature 62 °F 64 °F  
Max Temperature 74 °F 72 °F 99 °F (1939)
Min Temperature 50 °F 55 °F 40 °F (2007)
Degree Days  
Heating Degree Days 3 4  
Month to date heating degree days 19 33  
Since 1 July heating degree days 19 59  
Cooling Degree Days 0 2  
Month to date cooling degree days 69 50  
Year to date cooling degree days 1040 615  
Growing Degree Days 12 (Base 50)    
Moisture  
Dew Point 51 °F    
Average Humidity 62    
Maximum Humidity 89    
Minimum Humidity 35    
Precipitation  
Precipitation 0.00 in 0.11 in 2.98 in (1912)
Month to date precipitation 1.57 1.57  
Year to date precipitation 21.42 25.75  
Snow  
Snow 0.00 in 0.00 in 0.00 in ()
Month to date snowfall 0.0 0.0  
Since 1 July snowfall 0.0 0.0  
Since 1 September snowfall 0.0 0.0  
Snow Depth 0.00 in    
Sea Level Pressure  
Sea Level Pressure 30.23 in    
Wind  
Wind Speed 6 mph (South)    
Max Wind Speed 20 mph    
Max Gust Speed 22 mph    
Visibility 10 miles    
Events      
T = Trace of Precipitation, MM = Missing Value Source: NWS Daily Summary

Daily Weather History Graph

Daily Weather History Graph

Search for Another Location

Airport:

Trip Planner

Search our weather history database for the weather conditions in past years. The results will help you decide how hot, cold, wet, or windy it might be!

Date:

Astronomy

Sep. 15, 2012 Rise Set
Actual Time 6:31 AM CDT 7:00 PM CDT
Civil Twilight 6:03 AM CDT 7:29 PM CDT
Nautical Twilight 5:29 AM CDT 8:02 PM CDT
Astronomical Twilight 4:55 AM CDT 8:37 PM CDT
Moon 6:03 AM CDT (9/15) 6:29 PM CDT (9/15)
Length of Visible Light 13h 25m
Length of Day
12h 28m
Waning Crescent, 0% of the Moon is Illuminated
Sep 15
Waning Crescent
Sep 15
New
Sep 22
First Quarter
Sep 29
Full
Oct 8
Last Quarter

Hourly Weather History & Observations

Time (CDT) Temp. Dew Point Humidity Pressure Visibility Wind Dir Wind Speed Gust Speed Precip Events Conditions
12:52 AM 55.9 °F 51.1 °F 84% 30.29 in 10.0 mi Calm Calm - N/A   Partly Cloudy
1:52 AM 55.4 °F 50.0 °F 82% 30.29 in 10.0 mi Calm Calm - N/A   Partly Cloudy
2:52 AM 53.1 °F 50.0 °F 89% 30.28 in 10.0 mi Calm Calm - N/A   Partly Cloudy
3:52 AM 52.0 °F 48.9 °F 89% 30.28 in 10.0 mi Calm Calm - N/A   Partly Cloudy
4:52 AM 52.0 °F 48.9 °F 89% 30.28 in 10.0 mi Calm Calm - N/A   Clear
5:52 AM 51.1 °F 48.9 °F 92% 30.30 in 10.0 mi Calm Calm - N/A   Partly Cloudy
6:52 AM 52.0 °F 48.9 °F 89% 30.32 in 10.0 mi Calm Calm - N/A   Partly Cloudy
7:52 AM 57.9 °F 53.1 °F 84% 30.31 in 10.0 mi Calm Calm - N/A   Scattered Clouds
8:52 AM 66.0 °F 57.0 °F 73% 30.30 in 10.0 mi Calm Calm - N/A   Scattered Clouds
9:52 AM 69.1 °F 53.1 °F 57% 30.29 in 10.0 mi South 5.8 mph - N/A   Partly Cloudy
10:52 AM 71.1 °F 46.0 °F 41% 30.27 in 10.0 mi SSE 3.5 mph - N/A   Partly Cloudy
11:52 AM 73.0 °F 45.0 °F 37% 30.25 in 10.0 mi West 5.8 mph - N/A   Partly Cloudy
12:52 PM 73.0 °F 50.0 °F 44% 30.24 in 10.0 mi SSE 11.5 mph - N/A   Partly Cloudy
1:52 PM 73.0 °F 51.1 °F 46% 30.21 in 10.0 mi SE 10.4 mph - N/A   Partly Cloudy
2:52 PM 73.0 °F 54.0 °F 51% 30.19 in 10.0 mi SE 16.1 mph - N/A   Partly Cloudy
3:52 PM 73.0 °F 54.0 °F 51% 30.17 in 10.0 mi SSE 11.5 mph - N/A   Scattered Clouds
4:52 PM 72.0 °F 57.0 °F 59% 30.16 in 10.0 mi SE 16.1 mph - N/A   Partly Cloudy
5:52 PM 71.1 °F 55.9 °F 59% 30.14 in 10.0 mi South 13.8 mph - N/A   Partly Cloudy
6:52 PM 68.0 °F 53.1 °F 59% 30.14 in 10.0 mi South 8.1 mph - N/A   Partly Cloudy
7:52 PM 64.9 °F 53.1 °F 65% 30.12 in 10.0 mi South 8.1 mph - N/A   Partly Cloudy
8:52 PM 64.0 °F 53.1 °F 67% 30.12 in 10.0 mi SSW 6.9 mph - N/A   Partly Cloudy
9:52 PM 63.0 °F 53.1 °F 70% 30.13 in 10.0 mi SW 8.1 mph - N/A   Clear
10:52 PM 62.1 °F 50.0 °F 65% 30.13 in 10.0 mi SW 8.1 mph - N/A   Clear
11:52 PM 61.0 °F 50.0 °F 67% 30.12 in 10.0 mi SW 6.9 mph - N/A   Clear